Tracking 29591 objects as of 19-Sep-2024
HD Live streaming from Space Station
objects crossing your sky now

THOR ABLESTAR DEB

Track THOR ABLESTAR DEB now!
10-day predictions


NORAD ID: 13502
Int'l Code: 1961-015KT
Perigee: 809.1 km
Apogee: 1,215.1 km
Inclination: 66.5 °
Period: 105.2 minutes
Semi major axis: 7383 km
RCS: 0.058 m2 (small)
Launch date: June 29, 1961
Source: United States (US)
Launch site: AIR FORCE EASTERN TEST RANGE (AFETR)

Note: This is SATELLITE DEBRIS
Your satellite tracking list
Your tracking list is empty




NASA's NSSDC Master Catalog

Two Line Element Set (TLE):
1 13502U 61015KT  24262.45025262  .00010905  00000-0  98214-2 0  9997
2 13502  66.4524 268.4307 0274970 257.6797 269.7923 13.68507083 63325
Source of the keplerian elements: AFSPC